Regional Weather Roundup
Issued by NWS Albany, NY

Home | Current Version | Previous Version | Graphics & Text | Print | Product List | Glossary Off
Versions: 1 2 3 4 5 6 7 8 9 10 11 12 13 14 15 16 17 18 19 20 21 22 23 24 25 26 27 28 29 30 31 32 33 34 35 36 37 38 39 40 41 42 43 44 45 46 47 48 49 50

000
ASUS41 KALY 251810
RWRALY

NEW YORK STATE HOURLY WEATHER ROUNDUP
NATIONAL WEATHER SERVICE ALBANY NY
200 PM EDT FRI JUL 25 2014

NOTE: "FAIR" INDICATES FEW OR NO CLOUDS BELOW 12,000 FEET WITH NO
SIGNIFICANT WEATHER AND/OR NO OBSTRUCTIONS TO VISIBILITY.

NYZ032-033-038>043-046>054-057>066-NYZ062>081-251900-
EAST


CITY           SKY/WX    TMP DP  RH WIND       PRES   REMARKS
ALBANY         MOSUNNY   79  54  41 CALM      29.99F
GLENS FALLS    SUNNY     78  60  53 SW7       29.97F
POUGHKEEPSIE   SUNNY     78  54  43 W6        29.99F
NEWBURGH       SUNNY     75  57  53 CALM      30.02F
MONTGOMERY     SUNNY     77  54  44 CALM      30.01F
WHITE PLAINS   MOSUNNY   77  51  40 NW6       30.00F
ISLIP          MOSUNNY   81  51  35 NW12      29.98F
NEW YORK CITY  MOSUNNY   79  52  38 CALM      29.98F
CENTRAL PARK   SUNNY     81  54  39 VRB5      30.02F
$$

NYZ005>009-017-018-044>046-055-056-251900-
CENTRAL


CITY           SKY/WX    TMP DP  RH WIND       PRES   REMARKS
FULTON         SUNNY     75  52  44 W10       30.03F
SYRACUSE       MOSUNNY   79  50  36 W10G17    30.02F
ROME           SUNNY     74  54  49 VRB6G16   30.03F
ELMIRA         SUNNY     76  52  43 W3        30.04F
BINGHAMTON     MOSUNNY   71  54  54 W7        30.06F
MONTICELLO     MOSUNNY   73  52  46 CALM      30.06S
$$

NYZ026>034-041>043-251900-
NORTH


CITY           SKY/WX    TMP DP  RH WIND       PRES   REMARKS
WATERTOWN      SUNNY     72  54  53 SW14      30.01F
FORT DRUM      NOT AVBL
MASSENA        SUNNY     76  56  49 W16G25    29.95F
SARANAC LAKE   MOSUNNY   72  51  47 W13G21    29.99F
PLATTSBURGH    MOSUNNY   80  54  40 VRB7G17   29.93S
$$

NYZ001>004-010>016-019>021-251900-
WEST


CITY           SKY/WX    TMP DP  RH WIND       PRES   REMARKS
NIAGARA FALLS  PTSUNNY   75  52  44 SW15G22   30.01F
BUFFALO        MOSUNNY   73  55  53 W9        30.02F
DUNKIRK        MOSUNNY   71  54  54 W13G28    30.05F
JAMESTOWN      SUNNY     66  52  59 W8        30.07S
WELLSVILLE     SUNNY     73  51  46 N8        30.08F
ROCHESTER      MOSUNNY   75  53  46 VRB6      30.02F
PENN YAN       PTSUNNY   74  53  48 MISG      30.04F
$$

             KEY
       WCI = WIND CHILL INDEX
       VSB = VISIBILITY
       HX  = HEAT INDEX
$$



USA.gov is the U.S. government's official web portal to all federal, state and local government web resources and services.